Location: Alsip
(41.6689°N, 87.7387°W)
Time: 15:04:41
(UTC+00:00)

SL-08 R/B - Pass Details

Date: 14 July 2020
Orbit: 674 x 739 km, 98.4° (Epoch: 13 August)

Event Time Altitude Azimuth Distance (km) Brightness Sun altitude
Exits shadow 09:37:10 - 210° (SSW) 2,214 5.3 -8.8°
Reaches altitude 10° 09:37:21 10° 211° (SSW) 2,157 5.2 -8.8°
Maximum altitude 09:41:10 24° 266° (W) 1,436 4.5 -8.2°
Drops below altitude 10° 09:45:06 10° 320° (NW) 2,205 5.9 -7.7°
Sets 09:47:47 0° 334° (NNW) 3,141 6.8 -7.3°
